This demonstration page uses our WeatherBlox Daily Observations layout. Learn more.

Left ArrowRight Arrow

Hourly Observations for September 4, 2021

Temp ( °F °C ) Dew Point ( °F °C ) Humidity (%) Winds ( mph kmh ) Pressure ( in mb ) Visibility ( mi km ) Precip ( " mm )
12:54 am 00:54 Cloudy 68 20 62 16.7 81 81 N 8 13 29.95 1014 10 16 N/A
1:54 am 01:54 Partly Cloudy 66 18.9 61 16.1 84 84 NNE 7 11 29.94 1014 10 16 N/A
2:18 am 02:18 Mostly Cloudy 65 18.3 61 16.1 87 87 N 6 9 29.94 1014 10 16 N/A
2:54 am 02:54 Cloudy 67 19.4 61 16.1 81 81 N N/A 29.97 1015 10 16 N/A
3:54 am 03:54 Cloudy 66 18.9 61 16.1 84 84 WSW 3 6 29.97 1015 10 16 N/A
4:54 am 04:54 Cloudy 66 18.9 61 16.1 84 84 N 8 13 29.95 1014 10 16 N/A
5:54 am 05:54 Cloudy 66 18.9 61 16.1 84 84 N 8 13 29.96 1014 10 16 N/A
6:54 am 06:54 Cloudy 66 18.9 62 16.7 87 87 NNW 7 11 29.96 1015 10 16 N/A
7:54 am 07:54 Cloudy 66 18.9 62 16.7 87 87 NNW 7 11 29.99 1016 10 16 N/A
8:54 am 08:54 Cloudy 66 18.9 62 16.7 87 87 NNW 6 9 29.99 1016 10 16 0.00 0.00
9:54 am 09:54 Cloudy 67 19.4 62 16.7 84 84 NNW 8 13 30.00 1016 10 16 N/A
10:24 am 10:24 Cloudy 68 20 62 16.7 81 81 NNW 10 17 30.01 1016 10 16 N/A
10:36 am 10:36 Cloudy 68 20 62 16.7 81 81 N 14 22 30.02 1016 10 16 N/A
10:54 am 10:54 Cloudy 68 20 62 16.7 81 81 NNW 10 17 30.03 1017 10 16 N/A
11:43 am 11:43 Cloudy 72 22.2 62 16.7 71 71 N 9 15 30.00 1016 10 16 N/A
11:54 am 11:54 Cloudy 70 21.1 61 16.1 73 73 N 12 19 30.02 1017 10 16 N/A
12:03 pm 12:03 Cloudy 70 21.1 60 15.6 71 71 N 12 19 30.00 1016 10 16 N/A
12:30 pm 12:30 Cloudy 70 21.1 61 16.1 73 73 NNE 12 19 30.00 1016 10 16 N/A
12:40 pm 12:40 Cloudy 70 21.1 60 15.6 71 71 N 7 11 30.00 1016 10 16 N/A
12:50 pm 12:50 Cloudy 72 22 61 16 69 69 N 7 11 30.00 1016 10 16 N/A
12:54 pm 12:54 Cloudy 71 21.7 60 15.6 68 68 N 8 13 30.01 1016 10 16 N/A
1:27 pm 13:27 Partly Cloudy 74 23.3 60 15.6 62 62 N 5 7 29.99 1016 10 16 N/A
1:54 pm 13:54 Sunny 74 23.3 60 15.6 62 62 undefined N/A 30.01 1016 10 16 N/A
2:54 pm 14:54 Sunny 76 24.4 60 15.6 58 58 VRB 6 9 29.99 1016 10 16 N/A
3:54 pm 15:54 Sunny 78 25.6 60 15.6 54 54 NNW 5 7 29.98 1015 10 16 N/A
4:54 pm 16:54 Sunny 79 26.1 60 15.6 52 52 N 9 15 29.97 1015 10 16 N/A
5:54 pm 17:54 Sunny 78 25.6 60 15.6 54 54 ENE 6 9 29.98 1015 10 16 N/A
6:54 pm 18:54 Sunny 77 25 61 16.1 58 58 NE 5 7 29.97 1015 10 16 N/A
7:54 pm 19:54 Sunny 72 22.2 61 16.1 68 68 ENE 5 7 29.98 1015 10 16 N/A
8:54 pm 20:54 Clear 71 21.7 61 16.1 71 71 N N/A 29.99 1016 10 16 N/A
9:54 pm 21:54 Clear 68 20 61 16.1 78 78 N N/A 30.01 1016 10 16 N/A
10:54 pm 22:54 Clear 66 18.9 60 15.6 81 81 N N/A 30.01 1016 10 16 N/A
11:54 pm 23:54 Clear 65 18.3 59 15 81 81 N N/A 30.01 1016 10 16 N/A

Powered by AerisWeather